QPF
0.00 0.00 0.00 0.00 0.00 0.00 0.00 0.00 0.00 0.00 0.00 0.00 0.00 0.00 0.00 0.00 0.00 0.00 0.00 0.00 0.00 0.00 0.00 0.00 0.00 0.00 0.00 0.00 0.00 0.00 0.00 0.00 0.00 0.00 0.00 0.00 0.00 0.00 0.00 0.00 0.00 0.00 0.00 0.00 0.00 0.00 0.00 0.00 0.00 0.00 0.00 0.00 0.00 0.00 0.00 0.00 0.00 0.00 0.00 0.00 0.00 0.01 0.01
0.00 0.00 0.00 0.00 0.00 0.00 0.00 0.00 0.00 0.00 0.00 0.00 0.00 0.00 0.00 0.00 0.00 0.00 0.00 0.00 0.00 0.00 0.00 0.00 0.00 0.00 0.00 0.00 0.00 0.00 0.00 0.00 0.00 0.00 0.00 0.00 0.00 0.00 0.00 0.00 0.00 0.00 0.00 0.00 0.00 0.00 0.00 0.00 0.00 0.00 0.00 0.00 0.00 0.00 0.00 0.00 0.00 0.00 0.00 0.00 0.00 0.00 0.00
0.00 0.00 0.00 0.00 0.00 0.00 0.00 0.00 0.00 0.00 0.00 0.00 0.00 0.00 0.00 0.00 0.00 0.00 0.00 0.00 0.00 0.00 0.00 0.00 0.00 0.00 0.00 0.00 0.00 0.00 0.00 0.00 0.00 0.00 0.00 0.00 0.00 0.00 0.00 0.00 0.00 0.00 0.00 0.00 0.00 0.00 0.00 0.00 0.00 0.00 0.00 0.00 0.00 0.00 0.00 0.00 0.00 0.00 0.00 0.00 0.00 0.00 0.00
0.00 0.00 0.00 0.00 0.00 0.00 0.00 0.00 0.00 0.00 0.00 0.00 0.00 0.00 0.00 0.00 0.00 0.00 0.00 0.00 0.00 0.00 0.00 0.00 0.00 0.00 0.00 0.00 0.00 0.00 0.00 0.00 0.00 0.00 0.00 0.00 0.00 0.00 0.00 0.00 0.00 0.00 0.00 0.00 0.00 0.00 0.00 0.00 0.00 0.00 0.00 0.00 0.00 0.00 0.00 0.00 0.00 0.00 0.00 0.00 0.00 0.00 0.00
0.00 0.00 0.00 0.00 0.00 0.00 0.00 0.00 0.00 0.00 0.00 0.00 0.00 0.00 0.00 0.00 0.00 0.00 0.00 0.00 0.00 0.00 0.00 0.00 0.00 0.00 0.00 0.00 0.00 0.00 0.00 0.00 0.00 0.00 0.00 0.00 0.00 0.00 0.00 0.00 0.00 0.00 0.00 0.00 0.00 0.00 0.00 0.00 0.00 0.00 0.00 0.00 0.00 0.00 0.00 0.00 0.00 0.00 0.00 0.00 0.00 0.00 0.00
0.00 0.00 0.00 0.00 0.00 0.00 0.00 0.00 0.00 0.00 0.00 0.00 0.00 0.00 0.00 0.00 0.00 0.00 0.00 0.00 0.00 0.00 0.00 0.00 0.00 0.00 0.00 0.00 0.00 0.00 0.00 0.00 0.00 0.00 0.00 0.00 0.00 0.00 0.00 0.00 0.00 0.00 0.00 0.00 0.00 0.00 0.00 0.00 0.00 0.00 0.00 0.00 0.00 0.00 0.00 0.00 0.00 0.00 0.00 0.00 0.00 0.00 0.00
0.00 0.00 0.00 0.00 0.00 0.00 0.00 0.00 0.00 0.00 0.00 0.00 0.00 0.00 0.00 0.00 0.00 0.00 0.00 0.00 0.00 0.00 0.00 0.00 0.00 0.00 0.00 0.00 0.00 0.00 0.00 0.00 0.00 0.00 0.00 0.00 0.00 0.00 0.00 0.00 0.00 0.00 0.00 0.00 0.00 0.00 0.00 0.00 0.00 0.00 0.00 0.00 0.00 0.00 0.00 0.00 0.00 0.00 0.00 0.00 0.00 0.00 0.00
0.00 0.00 0.00 0.00 0.00 0.00 0.00 0.00 0.00 0.00 0.00 0.00 0.00 0.00 0.00 0.00 0.00 0.00 0.00 0.00 0.00 0.00 0.00 0.00 0.00 0.00 0.00 0.00 0.00 0.00 0.00 0.00 0.00 0.00 0.00 0.00 0.00 0.00 0.00 0.00 0.00 0.00 0.00 0.00 0.00 0.00 0.00 0.00 0.00 0.00 0.00 0.00 0.00 0.00 0.00 0.00 0.00 0.00 0.00 0.00 0.00 0.00 0.00
0.00 0.00 0.00 0.00 0.00 0.00 0.00 0.00 0.00 0.00 0.00 0.00 0.00 0.00 0.00 0.00 0.00 0.00 0.00 0.00 0.00 0.00 0.00 0.00 0.00 0.00 0.00 0.00 0.00 0.00 0.00 0.00 0.00 0.00 0.00 0.00 0.00 0.01 0.01 0.00 0.00 0.00 0.00 0.00 0.00 0.00 0.00 0.00 0.00 0.00 0.00 0.00 0.00 0.00 0.00 0.00 0.00 0.00 0.00 0.00 0.00 0.00 0.00
0.00 0.00 0.00 0.00 0.00 0.00 0.00 0.00 0.00 0.00 0.00 0.00 0.00 0.00 0.00 0.00 0.00 0.00 0.00 0.00 0.00 0.00 0.00 0.00 0.00 0.00 0.00 0.00 0.00 0.00 0.00 0.00 0.00 0.00 0.00 0.00 0.00 0.01 0.01 0.01 0.01 0.01 0.00 0.00 0.00 0.00 0.00 0.00 0.00 0.00 0.00 0.00 0.00 0.00 0.00 0.00 0.00 0.00 0.00 0.00 0.00 0.00 0.00
0.00 0.00 0.00 0.00 0.00 0.00 0.00 0.00 0.00 0.00 0.00 0.00 0.00 0.01 0.00 0.00 0.00 0.00 0.00 0.00 0.00 0.00 0.00 0.00 0.00 0.00 0.00 0.00 0.00 0.00 0.00 0.00 0.00 0.01 0.01 0.01 0.00 0.00 0.00 0.01 0.01 0.01 0.00 0.00 0.00 0.00 0.00 0.00 0.00 0.00 0.00 0.00 0.00 0.00 0.00 0.00 0.00 0.00 0.00 0.00 0.00 0.00 0.00
0.00 0.00 0.00 0.00 0.00 0.00 0.00 0.00 0.00 0.00 0.00 0.00 0.00 0.01 0.01 0.01 0.01 0.00 0.00 0.00 0.00 0.00 0.00 0.00 0.00 0.00 0.00 0.00 0.00 0.00 0.00 0.00 0.01 0.01 0.01 0.01 0.02 0.02 0.00 0.00 0.00 0.00 0.00 0.00 0.00 0.00 0.00 0.00 0.00 0.00 0.00 0.00 0.00 0.00 0.00 0.00 0.00 0.00 0.00 0.00 0.00 0.00 0.00
0.00 0.00 0.00 0.00 0.00 0.00 0.00 0.00 0.00 0.00 0.00 0.00 0.00 0.01 0.01 0.02 0.01 0.01 0.01 0.00 0.00 0.00 0.00 0.00 0.00 0.00 0.00 0.00 0.00 0.00 0.00 0.00 0.00 0.00 0.00 0.01 0.01 0.01 0.03 0.02 0.00 0.00 0.00 0.00 0.00 0.01 0.00 0.00 0.00 0.00 0.00 0.00 0.00 0.00 0.00 0.00 0.00 0.00 0.00 0.00 0.00 0.00 0.00
0.00 0.00 0.00 0.00 0.00 0.00 0.00 0.00 0.00 0.00 0.00 0.00 0.00 0.01 0.01 0.02 0.02 0.01 0.01 0.00 0.00 0.00 0.00 0.00 0.00 0.00 0.00 0.00 0.00 0.00 0.00 0.00 0.00 0.00 0.00 0.01 0.01 0.01 0.01 0.01 0.03 0.03 0.01 0.00 0.00 0.00 0.00 0.00 0.00 0.00 0.00 0.00 0.00 0.00 0.00 0.00 0.00 0.00 0.00 0.00 0.00 0.00 0.00
0.00 0.00 0.00 0.00 0.00 0.00 0.00 0.00 0.00 0.00 0.00 0.00 0.00 0.01 0.01 0.02 0.02 0.02 0.01 0.00 0.00 0.00 0.00 0.00 0.00 0.01 0.01 0.00 0.00 0.01 0.00 0.00 0.00 0.00 0.00 0.01 0.01 0.00 0.00 0.00 0.00 0.00 0.03 0.03 0.01 0.00 0.00 0.00 0.00 0.00 0.00 0.00 0.00 0.00 0.00 0.00 0.00 0.00 0.00 0.00 0.00 0.00 0.00
0.00 0.00 0.00 0.00 0.00 0.00 0.00 0.00 0.00 0.00 0.00 0.00 0.01 0.01 0.01 0.02 0.02 0.02 0.01 0.00 0.00 0.00 0.00 0.01 0.01 0.02 0.01 0.01 0.01 0.01 0.01 0.01 0.00 0.01 0.01 0.01 0.01 0.00 0.00 0.00 0.00 0.00 0.00 0.00 0.01 0.01 0.00 0.00 0.00 0.00 0.00 0.00 0.00 0.00 0.00 0.00 0.00 0.00 0.00 0.00 0.00 0.00 0.00
0.00 0.00 0.00 0.00 0.00 0.00 0.00 0.00 0.00 0.00 0.00 0.00 0.01 0.01 0.02 0.02 0.02 0.02 0.01 0.01 0.00 0.00 0.01 0.03 0.03 0.03 0.04 0.02 0.01 0.01 0.02 0.04 0.03 0.02 0.01 0.01 0.00 0.00 0.00 0.00 0.00 0.00 0.00 0.00 0.00 0.00 0.01 0.00 0.00 0.00 0.00 0.00 0.00 0.00 0.00 0.00 0.00 0.00 0.00 0.00 0.00 0.00 0.00
0.00 0.00 0.00 0.00 0.00 0.00 0.00 0.00 0.00 0.00 0.00 0.00 0.00 0.01 0.02 0.02 0.02 0.01 0.01 0.01 0.01 0.01 0.01 0.02 0.03 0.04 0.02 0.01 0.00 0.01 0.01 0.02 0.04 0.04 0.01 0.00 0.00 0.00 0.00 0.00 0.00 0.00 0.00 0.00 0.00 0.01 0.01 0.02 0.03 0.02 0.00 0.00 0.00 0.00 0.00 0.00 0.00 0.00 0.00 0.00 0.00 0.00 0.00
0.00 0.00 0.00 0.00 0.00 0.00 0.00 0.00 0.00 0.00 0.00 0.00 0.00 0.01 0.03 0.03 0.02 0.02 0.02 0.02 0.01 0.01 0.01 0.01 0.01 0.02 0.01 0.00 0.00 0.00 0.01 0.03 0.04 0.04 0.01 0.00 0.00 0.00 0.00 0.00 0.00 0.00 0.00 0.00 0.00 0.00 0.00 0.01 0.01 0.02 0.05 0.04 0.01 0.01 0.01 0.01 0.00 0.00 0.00 0.00 0.00 0.00 0.00
0.00 0.00 0.00 0.00 0.00 0.00 0.00 0.00 0.00 0.00 0.00 0.00 0.00 0.01 0.03 0.03 0.03 0.03 0.02 0.02 0.01 0.01 0.01 0.01 0.00 0.00 0.00 0.00 0.00 0.00 0.00 0.00 0.00 0.04 0.12 0.07 0.03 0.01 0.00 0.00 0.00 0.00 0.00 0.00 0.00 0.00 0.00 0.00 0.00 0.01 0.01 0.02 0.03 0.02 0.01 0.01 0.02 0.01 0.00 0.00 0.00 0.00 0.00
0.01 0.01 0.00 0.00 0.00 0.00 0.00 0.00 0.00 0.00 0.00 0.00 0.01 0.01 0.03 0.04 0.03 0.02 0.02 0.02 0.02 0.01 0.01 0.01 0.00 0.00 0.00 0.00 0.00 0.00 0.00 0.00 0.00 0.00 0.01 0.05 0.12 0.07 0.02 0.01 0.00 0.00 0.00 0.00 0.00 0.00 0.00 0.00 0.00 0.01 0.01 0.02 0.01 0.01 0.01 0.01 0.01 0.01 0.01 0.00 0.00 0.00 0.00
0.01 0.00 0.00 0.00 0.00 0.00 0.00 0.00 0.00 0.00 0.00 0.00 0.01 0.02 0.03 0.05 0.03 0.03 0.02 0.02 0.01 0.01 0.01 0.01 0.00 0.00 0.00 0.00 0.00 0.00 0.00 0.00 0.00 0.00 0.01 0.01 0.02 0.07 0.05 0.01 0.00 0.00 0.00 0.00 0.00 0.00 0.00 0.00 0.00 0.00 0.01 0.01 0.01 0.01 0.00 0.00 0.01 0.00 0.00 0.01 0.01 0.01 0.01
0.01 0.00 0.00 0.00 0.00 0.00 0.00 0.00 0.00 0.00 0.00 0.01 0.01 0.02 0.03 0.05 0.04 0.04 0.03 0.01 0.01 0.01 0.01 0.01 0.01 0.01 0.00 0.00 0.00 0.00 0.00 0.00 0.00 0.00 0.01 0.03 0.03 0.03 0.02 0.03 0.04 0.04 0.02 0.01 0.01 0.00 0.00 0.00 0.00 0.00 0.00 0.00 0.00 0.00 0.00 0.00 0.00 0.00 0.00 0.00 0.00 0.01 0.01
0.01 0.01 0.00 0.00 0.00 0.00 0.00 0.00 0.00 0.00 0.00 0.01 0.02 0.02 0.03 0.04 0.05 0.04 0.02 0.01 0.01 0.01 0.01 0.01 0.01 0.01 0.01 0.00 0.00 0.00 0.00 0.00 0.01 0.02 0.03 0.03 0.02 0.01 0.00 0.00 0.01 0.03 0.04 0.03 0.02 0.01 0.01 0.00 0.00 0.00 0.00 0.00 0.00 0.00 0.00 0.01 0.01 0.01 0.00 0.00 0.00 0.00 0.00
0.01 0.01 0.00 0.00 0.00 0.00 0.00 0.01 0.00 0.00 0.00 0.01 0.02 0.03 0.03 0.04 0.03 0.02 0.02 0.01 0.01 0.01 0.01 0.01 0.01 0.01 0.01 0.01 0.00 0.00 0.01 0.01 0.01 0.01 0.01 0.00 0.00 0.00 0.00 0.00 0.00 0.00 0.01 0.03 0.03 0.02 0.01 0.00 0.00 0.00 0.00 0.00 0.00 0.00 0.01 0.01 0.01 0.00 0.00 0.00 0.00 0.00 0.00
0.01 0.01 0.01 0.00 0.00 0.00 0.01 0.01 0.01 0.00 0.01 0.01 0.02 0.02 0.02 0.01 0.01 0.01 0.01 0.01 0.01 0.00 0.01 0.01 0.02 0.02 0.02 0.01 0.01 0.01 0.01 0.01 0.01 0.01 0.01 0.00 0.00 0.00 0.00 0.00 0.00 0.00 0.01 0.01 0.01 0.01 0.01 0.01 0.00 0.00 0.00 0.00 0.01 0.01 0.01 0.00 0.00 0.00 0.00 0.00 0.00 0.00 0.00
0.01 0.01 0.01 0.00 0.00 0.01 0.01 0.01 0.01 0.01 0.01 0.01 0.01 0.01 0.01 0.01 0.01 0.00 0.01 0.01 0.01 0.00 0.01 0.01 0.01 0.01 0.00 0.00 0.00 0.01 0.01 0.00 0.00 0.00 0.00 0.00 0.00 0.00 0.00 0.00 0.00 0.00 0.00 0.00 0.01 0.00 0.00 0.00 0.00 0.00 0.01 0.00 0.01 0.01 0.01 0.01 0.01 0.00 0.00 0.00 0.00 0.00 0.00
0.01 0.01 0.01 0.01 0.01 0.01 0.01 0.01 0.01 0.01 0.01 0.01 0.01 0.01 0.00 0.00 0.00 0.01 0.01 0.01 0.00 0.00 0.00 0.01 0.01 0.01 0.02 0.02 0.01 0.01 0.01 0.00 0.00 0.00 0.00 0.00 0.00 0.00 0.00 0.00 0.00 0.00 0.00 0.00 0.00 0.00 0.00 0.00 0.00 0.00 0.00 0.00 0.01 0.01 0.01 0.01 0.01 0.00 0.00 0.00 0.00 0.00 0.00
0.01 0.01 0.01 0.01 0.01 0.00 0.00 0.01 0.01 0.01 0.01 0.01 0.01 0.01 0.00 0.01 0.01 0.01 0.01 0.01 0.00 0.01 0.01 0.01 0.01 0.01 0.01 0.01 0.01 0.01 0.01 0.00 0.00 0.00 0.00 0.00 0.00 0.00 0.00 0.00 0.00 0.00 0.00 0.00 0.00 0.00 0.00 0.00 0.01 0.00 0.00 0.00 0.01 0.01 0.01 0.01 0.01 0.01 0.00 0.00 0.00 0.00 0.00
0.01 0.01 0.01 0.01 0.00 0.00 0.00 0.00 0.01 0.01 0.01 0.01 0.01 0.02 0.02 0.01 0.01 0.02 0.03 0.02 0.01 0.02 0.02 0.01 0.01 0.01 0.01 0.01 0.01 0.01 0.00 0.00 0.00 0.00 0.00 0.00 0.00 0.00 0.00 0.00 0.00 0.00 0.00 0.00 0.00 0.00 0.00 0.00 0.01 0.01 0.01 0.01 0.01 0.01 0.01 0.01 0.01 0.01 0.01 0.01 0.01 0.01 0.00
0.01 0.01 0.01 0.01 0.00 0.00 0.01 0.01 0.01 0.01 0.01 0.01 0.01 0.01 0.01 0.02 0.02 0.02 0.02 0.01 0.01 0.02 0.01 0.01 0.01 0.01 0.01 0.01 0.01 0.00 0.00 0.00 0.00 0.00 0.00 0.00 0.00 0.00 0.00 0.00 0.00 0.00 0.00 0.00 0.00 0.01 0.01 0.01 0.01 0.01 0.01 0.01 0.01 0.01 0.01 0.02 0.02 0.01 0.01 0.02 0.01 0.01 0.00
0.02 0.02 0.02 0.03 0.02 0.01 0.01 0.01 0.02 0.01 0.01 0.01 0.01 0.02 0.02 0.02 0.01 0.01 0.01 0.02 0.02 0.01 0.01 0.01 0.01 0.01 0.00 0.00 0.00 0.00 0.00 0.00 0.00 0.00 0.00 0.00 0.00 0.00 0.00 0.00 0.00 0.00 0.01 0.01 0.01 0.01 0.01 0.01 0.01 0.01 0.01 0.01 0.01 0.01 0.02 0.02 0.03 0.03 0.03 0.03 0.02 0.02 0.01
0.03 0.04 0.03 0.03 0.04 0.03 0.01 0.01 0.01 0.01 0.01 0.02 0.02 0.02 0.01 0.01 0.01 0.02 0.01 0.01 0.01 0.01 0.01 0.01 0.00 0.00 0.00 0.00 0.00 0.00 0.00 0.00 0.00 0.00 0.00 0.00 0.00 0.00 0.00 0.00 0.00 0.00 0.01 0.00 0.01 0.01 0.01 0.01 0.01 0.01 0.01 0.02 0.02 0.02 0.01 0.01 0.01 0.02 0.03 0.03 0.04 0.03 0.02
0.05 0.03 0.02 0.02 0.02 0.02 0.02 0.01 0.01 0.01 0.01 0.01 0.01 0.01 0.01 0.01 0.02 0.01 0.00 0.00 0.00 0.00 0.00 0.00 0.00 0.00 0.00 0.00 0.00 0.00 0.00 0.01 0.00 0.01 0.01 0.01 0.00 0.00 0.00 0.00 0.00 0.00 0.00 0.00 0.00 0.00 0.01 0.01 0.01 0.01 0.01 0.01 0.01 0.01 0.02 0.01 0.01 0.01 0.01 0.02 0.02 0.02 0.02
0.02 0.01 0.01 0.01 0.01 0.00 0.00 0.00 0.00 0.00 0.01 0.01 0.01 0.01 0.01 0.01 0.00 0.00 0.00 0.00 0.00 0.00 0.00 0.00 0.00 0.00 0.00 0.00 0.00 0.01 0.01 0.01 0.01 0.01 0.01 0.01 0.01 0.00 0.00 0.00 0.00 0.00 0.00 0.00 0.00 0.00 0.00 0.00 0.00 0.00 0.00 0.01 0.01 0.01 0.01 0.01 0.01 0.01 0.01 0.01 0.01 0.01 0.01
0.01 0.01 0.00 0.00 0.00 0.00 0.00 0.00 0.00 0.01 0.01 0.01 0.01 0.00 0.00 0.00 0.00 0.00 0.00 0.00 0.00 0.00 0.00 0.00 0.00 0.00 0.00 0.01 0.01 0.01 0.01 0.01 0.01 0.01 0.01 0.01 0.01 0.00 0.00 0.00 0.00 0.00 0.00 0.00 0.00 0.00 0.00 0.00 0.00 0.00 0.00 0.00 0.00 0.01 0.01 0.01 0.01 0.01 0.01 0.01 0.00 0.00 0.01
MSLP
1021.35 1021.55 1021.67 1021.75 1021.75 1021.79 1021.87 1022.03 1022.19 1022.31 1022.47 1022.55 1022.55 1022.55 1022.51 1022.47 1022.47 1022.39 1022.23 1022.15 1022.11 1022.07 1022.15 1022.27 1022.39 1022.47 1022.59 1022.79 1022.99 1022.99 1023.11 1023.15 1023.27 1023.35 1023.39 1023.47 1023.47 1023.43 1023.23 1023.15 1023.31 1023.15 1022.83 1022.55 1022.23 1021.95 1021.67 1021.43 1021.31 1021.11 1021.15 1020.99 1020.71 1020.55 1020.51 1020.47 1020.39 1020.31 1020.31 1020.23 1020.15 1020.11 1020.11
1020.91 1021.15 1021.31 1021.43 1021.43 1021.51 1021.59 1021.71 1021.87 1022.07 1022.19 1022.27 1022.31 1022.31 1022.23 1022.15 1022.11 1022.03 1021.91 1021.83 1021.79 1021.75 1021.79 1021.91 1022.03 1022.07 1022.23 1022.43 1022.67 1022.75 1022.79 1022.83 1022.95 1022.99 1023.07 1023.03 1023.07 1023.11 1023.11 1023.03 1022.99 1022.91 1022.83 1022.63 1022.43 1021.95 1021.83 1021.55 1021.51 1021.31 1021.03 1021.11 1020.91 1020.63 1020.43 1020.35 1020.31 1020.27 1020.23 1020.15 1020.03 1020.03 1019.99
1020.51 1020.75 1020.95 1021.07 1021.11 1021.19 1021.27 1021.39 1021.55 1021.71 1021.87 1021.99 1022.07 1022.03 1021.95 1021.79 1021.63 1021.55 1021.47 1021.43 1021.35 1021.35 1021.39 1021.51 1021.63 1021.71 1021.87 1022.07 1022.31 1022.35 1022.43 1022.55 1022.63 1022.71 1022.75 1022.75 1022.71 1022.75 1022.83 1022.87 1022.95 1022.91 1022.75 1022.75 1022.35 1022.39 1021.83 1021.67 1021.39 1021.15 1020.99 1020.91 1020.71 1020.55 1020.43 1020.31 1020.19 1020.19 1020.07 1020.03 1020.03 1019.99 1019.83
1020.11 1020.31 1020.51 1020.63 1020.75 1020.79 1020.91 1021.03 1021.19 1021.39 1021.55 1021.71 1021.75 1021.79 1021.71 1021.63 1021.47 1021.31 1021.15 1021.07 1021.03 1021.03 1021.07 1021.07 1021.19 1021.19 1021.43 1021.67 1021.91 1021.95 1022.07 1022.11 1022.31 1022.39 1022.39 1022.47 1022.51 1022.55 1022.59 1022.63 1022.71 1022.75 1022.79 1022.47 1022.39 1021.95 1022.03 1021.59 1021.27 1020.87 1020.63 1020.59 1020.51 1020.39 1020.39 1020.31 1020.07 1019.91 1019.99 1019.95 1019.87 1019.83 1019.67
1019.75 1019.91 1020.03 1020.15 1020.23 1020.35 1020.47 1020.63 1020.87 1021.03 1021.19 1021.31 1021.39 1021.39 1021.35 1021.27 1021.23 1021.11 1020.99 1020.91 1020.87 1020.83 1020.87 1020.87 1020.87 1020.87 1021.11 1021.31 1021.47 1021.51 1021.55 1021.63 1021.91 1022.03 1022.11 1022.11 1022.07 1022.23 1022.31 1022.43 1022.43 1022.43 1022.43 1022.43 1022.27 1022.03 1021.71 1021.51 1021.15 1020.71 1020.31 1020.15 1020.03 1019.99 1019.95 1019.91 1019.99 1019.99 1019.83 1019.63 1019.67 1019.59 1019.51
1019.35 1019.43 1019.55 1019.63 1019.71 1019.87 1020.03 1020.27 1020.47 1020.67 1020.79 1020.95 1021.03 1021.03 1020.95 1020.83 1020.75 1020.59 1020.51 1020.43 1020.43 1020.39 1020.39 1020.39 1020.39 1020.47 1020.71 1020.87 1021.03 1020.95 1021.03 1021.27 1021.47 1021.71 1021.71 1021.75 1021.79 1021.83 1021.95 1022.11 1022.15 1022.15 1022.15 1022.15 1022.07 1021.99 1021.79 1021.59 1021.47 1021.03 1020.59 1020.27 1020.11 1019.91 1019.71 1019.59 1019.59 1019.67 1019.71 1019.71 1019.51 1019.39 1019.35
1018.91 1018.99 1019.15 1019.23 1019.35 1019.43 1019.67 1019.87 1020.11 1020.27 1020.43 1020.55 1020.67 1020.71 1020.67 1020.55 1020.35 1020.19 1020.11 1019.99 1019.99 1019.99 1019.99 1019.99 1019.99 1020.07 1020.23 1020.39 1020.47 1020.59 1020.67 1020.87 1021.03 1021.19 1021.27 1021.31 1021.43 1021.55 1021.75 1021.79 1021.83 1021.91 1021.99 1021.95 1021.91 1021.79 1021.71 1021.59 1021.31 1021.11 1020.79 1020.31 1020.03 1019.75 1019.55 1019.35 1019.23 1019.11 1019.23 1019.31 1019.35 1019.19 1019.03
1018.47 1018.59 1018.75 1018.83 1018.95 1019.07 1019.31 1019.55 1019.75 1019.91 1020.07 1020.23 1020.31 1020.35 1020.35 1020.27 1020.11 1019.87 1019.71 1019.63 1019.63 1019.67 1019.67 1019.63 1019.63 1019.67 1019.79 1019.91 1019.95 1020.11 1020.19 1020.47 1020.51 1020.55 1020.71 1020.67 1020.95 1021.07 1021.27 1021.39 1021.43 1021.63 1021.71 1021.75 1021.75 1021.63 1021.55 1021.39 1021.27 1020.99 1020.75 1020.51 1020.19 1019.91 1019.43 1019.19 1019.19 1019.07 1018.95 1018.95 1019.03 1019.03 1018.99
1018.11 1018.31 1018.43 1018.55 1018.67 1018.83 1018.99 1019.19 1019.31 1019.51 1019.71 1019.91 1019.99 1020.03 1020.03 1019.87 1019.75 1019.51 1019.43 1019.35 1019.35 1019.35 1019.39 1019.35 1019.27 1019.23 1019.27 1019.39 1019.43 1019.47 1019.55 1019.71 1019.87 1020.11 1020.03 1019.95 1020.27 1020.55 1020.75 1020.83 1020.95 1021.07 1021.19 1021.27 1021.31 1021.31 1021.19 1021.15 1020.99 1020.83 1020.63 1020.43 1020.23 1019.95 1019.67 1019.35 1019.11 1018.91 1018.71 1018.67 1018.59 1018.43 1018.51
1017.79 1017.91 1018.11 1018.31 1018.47 1018.59 1018.71 1018.79 1018.91 1019.03 1019.11 1019.19 1019.39 1019.59 1019.67 1019.63 1019.47 1019.35 1019.23 1019.15 1019.07 1018.99 1018.91 1018.83 1018.83 1018.79 1018.83 1018.87 1018.87 1018.87 1018.91 1018.87 1018.91 1019.03 1019.15 1019.11 1019.47 1019.83 1020.11 1020.27 1020.43 1020.47 1020.51 1020.67 1020.83 1020.75 1020.79 1020.95 1020.75 1020.47 1020.23 1020.07 1019.71 1019.47 1019.31 1019.23 1019.19 1019.07 1018.79 1018.71 1018.51 1018.23 1017.91
1017.51 1017.63 1017.79 1018.07 1018.23 1018.35 1018.39 1018.51 1018.59 1018.59 1018.51 1018.39 1018.27 1018.55 1018.99 1019.11 1019.11 1019.07 1019.03 1018.95 1018.83 1018.63 1018.47 1018.39 1018.39 1018.43 1018.43 1018.43 1018.35 1018.31 1018.19 1018.15 1018.07 1018.03 1017.99 1018.11 1018.39 1018.71 1019.07 1019.47 1019.71 1019.75 1019.87 1020.07 1020.15 1020.07 1020.35 1020.31 1020.07 1019.63 1019.67 1019.67 1019.43 1019.19 1019.19 1019.15 1019.03 1018.91 1018.83 1018.75 1018.91 1018.51 1017.95
1017.15 1017.35 1017.55 1017.79 1017.99 1018.07 1018.11 1018.19 1018.19 1018.11 1017.95 1017.79 1017.67 1017.67 1017.83 1018.19 1018.35 1018.35 1018.35 1018.27 1018.19 1018.07 1017.91 1017.79 1017.71 1017.63 1017.67 1017.71 1017.67 1017.63 1017.67 1017.55 1017.43 1017.31 1017.23 1017.19 1017.27 1017.51 1017.83 1018.03 1018.43 1018.79 1019.19 1019.39 1019.59 1019.63 1019.51 1019.55 1019.23 1019.07 1019.19 1019.11 1019.07 1018.95 1018.87 1018.83 1018.79 1018.75 1018.75 1018.67 1018.31 1018.07 1018.07
1016.87 1017.03 1017.19 1017.43 1017.63 1017.75 1017.79 1017.87 1017.83 1017.63 1017.39 1017.19 1017.07 1016.99 1017.03 1017.03 1017.31 1017.51 1017.47 1017.43 1017.39 1017.31 1017.19 1017.07 1016.99 1016.91 1016.79 1016.71 1016.71 1016.79 1016.87 1016.95 1016.91 1016.79 1016.67 1016.59 1016.59 1016.51 1016.55 1016.87 1017.19 1017.39 1017.67 1018.19 1018.79 1018.79 1018.59 1018.39 1018.47 1018.67 1018.39 1018.35 1018.39 1018.39 1018.63 1018.51 1018.47 1018.51 1018.39 1018.19 1017.99 1017.79 1017.71
1016.47 1016.63 1016.79 1016.99 1017.19 1017.35 1017.43 1017.47 1017.51 1017.27 1016.95 1016.67 1016.51 1016.43 1016.39 1016.39 1016.35 1016.35 1016.39 1016.39 1016.39 1016.35 1016.27 1016.27 1016.27 1016.15 1015.95 1015.75 1015.83 1015.91 1015.95 1016.07 1016.19 1016.27 1016.35 1016.35 1016.23 1016.11 1016.03 1015.99 1015.99 1016.31 1016.67 1017.07 1017.43 1017.71 1017.59 1017.23 1017.83 1017.63 1017.27 1017.59 1017.91 1018.15 1018.19 1018.03 1018.03 1017.83 1017.99 1018.03 1017.95 1017.71 1017.47
1016.11 1016.27 1016.47 1016.63 1016.79 1016.95 1016.95 1017.07 1016.99 1016.71 1016.43 1016.19 1016.03 1015.95 1015.91 1015.83 1015.79 1015.75 1015.63 1015.55 1015.51 1015.47 1015.35 1015.27 1015.23 1015.19 1015.07 1014.87 1014.83 1014.83 1014.95 1015.15 1015.31 1015.51 1015.75 1015.87 1015.87 1015.83 1015.71 1015.67 1015.63 1015.59 1015.71 1016.07 1016.43 1016.55 1016.43 1016.51 1016.87 1016.87 1016.91 1017.15 1017.31 1017.39 1017.23 1017.15 1017.15 1017.15 1017.31 1017.35 1017.35 1017.31 1017.27
1015.79 1015.99 1016.15 1016.31 1016.47 1016.63 1016.55 1016.59 1016.43 1016.07 1015.79 1015.59 1015.47 1015.43 1015.43 1015.35 1015.27 1015.15 1015.03 1014.91 1014.83 1014.83 1014.75 1014.67 1014.63 1014.55 1014.39 1014.15 1014.03 1013.83 1013.75 1013.95 1014.39 1014.83 1015.11 1015.27 1015.31 1015.39 1015.39 1015.27 1014.99 1014.99 1015.11 1015.23 1015.35 1015.55 1015.71 1015.75 1015.87 1016.03 1016.31 1016.47 1016.59 1016.63 1016.67 1016.71 1016.67 1016.71 1016.91 1017.11 1017.15 1017.19 1016.75
1015.43 1015.59 1015.79 1015.95 1016.07 1016.19 1016.11 1016.07 1015.95 1015.63 1015.27 1015.03 1014.87 1014.83 1014.75 1014.71 1014.63 1014.47 1014.31 1014.15 1014.11 1014.07 1013.99 1013.87 1013.71 1013.63 1013.51 1013.35 1013.23 1013.03 1012.99 1013.03 1013.35 1013.99 1014.39 1014.63 1014.79 1014.91 1015.03 1014.79 1014.63 1014.63 1014.51 1014.43 1014.47 1014.51 1014.67 1014.79 1015.03 1015.19 1015.31 1015.51 1015.71 1015.87 1016.03 1016.35 1016.55 1016.71 1016.59 1016.63 1016.71 1016.59 1016.31
1015.11 1015.23 1015.31 1015.47 1015.55 1015.59 1015.67 1015.51 1015.39 1015.15 1014.83 1014.55 1014.35 1014.27 1014.27 1014.23 1014.15 1013.91 1013.71 1013.55 1013.43 1013.35 1013.23 1013.07 1012.91 1012.87 1012.87 1012.79 1012.63 1012.51 1012.43 1012.47 1012.67 1013.35 1013.79 1014.03 1014.23 1014.47 1014.59 1014.27 1014.15 1014.43 1014.35 1014.15 1013.99 1013.83 1013.67 1013.79 1014.07 1014.31 1014.39 1014.55 1014.71 1014.99 1015.39 1015.91 1016.15 1015.79 1015.95 1016.23 1016.19 1016.31 1016.11
1014.87 1014.91 1014.91 1014.91 1015.03 1015.03 1015.07 1014.99 1014.87 1014.67 1014.39 1014.11 1013.87 1013.75 1013.71 1013.67 1013.59 1013.39 1013.19 1013.03 1012.83 1012.67 1012.55 1012.43 1012.31 1012.23 1012.23 1012.27 1012.31 1012.23 1012.11 1012.11 1012.15 1012.43 1012.87 1013.23 1013.55 1013.79 1013.91 1013.23 1013.35 1013.83 1014.03 1014.07 1014.11 1013.91 1013.71 1013.55 1013.35 1013.39 1013.63 1013.83 1013.99 1014.19 1014.43 1014.79 1015.03 1015.19 1015.59 1015.75 1015.71 1015.87 1015.99
1014.59 1014.71 1014.63 1014.63 1014.67 1014.67 1014.63 1014.59 1014.39 1014.31 1014.07 1013.71 1013.35 1013.07 1012.99 1012.95 1012.79 1012.55 1012.43 1012.31 1012.15 1011.95 1011.87 1011.99 1012.03 1011.95 1011.83 1011.79 1011.87 1011.95 1011.99 1011.99 1011.95 1011.95 1012.15 1012.39 1012.75 1012.99 1012.91 1012.31 1012.71 1012.99 1013.15 1013.27 1013.47 1013.39 1013.39 1013.35 1013.27 1013.39 1013.43 1013.47 1013.51 1013.59 1013.75 1013.87 1014.23 1014.55 1014.75 1015.11 1015.19 1015.23 1015.39
1014.35 1014.47 1014.43 1014.35 1014.23 1014.19 1014.11 1014.15 1014.11 1013.99 1013.79 1013.35 1012.95 1012.63 1012.39 1012.27 1012.07 1011.95 1011.95 1011.83 1011.63 1011.55 1011.67 1011.79 1011.79 1011.79 1011.79 1011.71 1011.63 1011.67 1011.71 1011.75 1011.71 1011.71 1011.67 1011.71 1011.87 1011.95 1011.67 1011.67 1012.07 1012.27 1012.43 1012.71 1012.87 1013.03 1013.15 1013.19 1013.19 1013.23 1013.23 1013.23 1013.27 1013.27 1013.27 1013.31 1013.47 1013.75 1014.03 1014.35 1014.67 1014.79 1014.83
1014.07 1014.15 1014.11 1014.03 1013.95 1013.83 1013.75 1013.71 1013.67 1013.55 1013.35 1012.87 1012.39 1012.03 1011.75 1011.71 1011.51 1011.35 1011.35 1011.31 1011.35 1011.39 1011.51 1011.51 1011.51 1011.55 1011.59 1011.51 1011.47 1011.43 1011.47 1011.47 1011.47 1011.35 1011.27 1011.11 1010.95 1010.99 1011.03 1010.99 1011.07 1011.23 1011.63 1011.99 1012.23 1012.47 1012.71 1012.83 1012.91 1012.91 1012.95 1012.95 1012.91 1012.83 1012.79 1012.83 1012.87 1013.07 1013.31 1013.55 1013.79 1014.03 1014.27
1013.79 1013.95 1013.95 1013.91 1013.71 1013.55 1013.39 1013.27 1013.19 1012.91 1012.71 1012.31 1011.87 1011.47 1011.19 1010.95 1010.83 1010.67 1010.71 1010.91 1010.99 1011.07 1011.11 1011.11 1011.15 1011.23 1011.27 1011.27 1011.23 1011.19 1011.11 1011.15 1011.11 1010.99 1010.87 1010.71 1010.55 1010.51 1010.67 1010.71 1010.83 1010.87 1010.99 1011.31 1011.55 1011.79 1012.03 1012.19 1012.31 1012.51 1012.51 1012.47 1012.47 1012.31 1012.43 1012.59 1012.67 1012.67 1012.83 1013.07 1013.23 1013.39 1013.55
1013.63 1013.75 1013.71 1013.59 1013.31 1013.07 1012.83 1012.63 1012.51 1012.23 1011.95 1011.67 1011.31 1010.91 1010.59 1010.35 1010.15 1010.07 1010.23 1010.39 1010.55 1010.59 1010.67 1010.75 1010.87 1011.03 1011.03 1011.03 1010.95 1010.87 1010.83 1010.75 1010.79 1010.67 1010.51 1010.43 1010.43 1010.51 1010.63 1010.63 1010.71 1010.75 1010.71 1010.87 1011.15 1011.31 1011.43 1011.51 1011.51 1011.71 1011.87 1011.71 1011.79 1011.99 1012.15 1012.35 1012.51 1012.59 1012.63 1012.71 1012.79 1012.95 1013.15
1013.23 1013.35 1013.27 1013.07 1012.71 1012.31 1012.03 1011.75 1011.55 1011.43 1011.27 1010.99 1010.71 1010.39 1010.07 1009.83 1009.71 1009.75 1009.87 1010.03 1010.23 1010.35 1010.47 1010.51 1010.55 1010.59 1010.59 1010.59 1010.59 1010.59 1010.55 1010.47 1010.39 1010.43 1010.47 1010.43 1010.55 1010.75 1010.79 1010.75 1010.75 1010.71 1010.63 1010.59 1010.59 1010.71 1010.75 1010.83 1010.83 1010.83 1010.83 1011.07 1011.47 1011.79 1012.11 1012.31 1012.35 1012.47 1012.55 1012.63 1012.75 1012.79 1012.87
1012.75 1012.75 1012.71 1012.47 1012.19 1011.91 1011.59 1011.31 1011.19 1011.03 1010.91 1010.71 1010.35 1009.99 1009.75 1009.67 1009.75 1009.79 1009.87 1009.91 1009.99 1010.07 1010.11 1010.11 1010.11 1010.11 1010.15 1010.19 1010.19 1010.27 1010.35 1010.43 1010.47 1010.39 1010.39 1010.51 1010.63 1010.79 1010.79 1010.87 1010.95 1010.99 1010.71 1010.51 1010.35 1010.23 1010.27 1010.19 1010.23 1010.39 1010.63 1011.11 1011.35 1011.59 1011.67 1011.83 1012.07 1012.27 1012.47 1012.63 1012.75 1012.79 1012.67
1012.23 1012.19 1012.11 1011.91 1011.63 1011.39 1011.11 1010.95 1010.83 1010.67 1010.43 1010.31 1010.31 1009.99 1009.83 1009.83 1009.87 1009.87 1009.91 1009.99 1010.07 1010.07 1010.19 1010.23 1010.19 1010.23 1010.19 1010.19 1010.15 1010.07 1010.07 1010.27 1010.47 1010.59 1010.71 1010.75 1010.75 1010.71 1010.79 1010.87 1011.03 1011.07 1010.87 1010.43 1010.15 1010.03 1009.95 1009.87 1009.95 1010.15 1010.59 1010.87 1010.99 1011.15 1011.19 1011.35 1011.67 1011.95 1012.03 1012.23 1012.39 1012.51 1012.43
1011.59 1011.51 1011.43 1011.27 1011.11 1010.91 1010.79 1010.67 1010.43 1010.11 1009.99 1009.87 1009.79 1009.71 1009.75 1009.83 1009.83 1009.91 1010.03 1010.07 1010.03 1010.07 1010.07 1010.07 1010.07 1010.03 1010.15 1010.19 1010.23 1010.35 1010.51 1010.59 1010.71 1010.75 1010.71 1010.75 1010.91 1010.99 1011.07 1010.99 1010.91 1010.83 1010.91 1010.91 1010.79 1010.55 1010.19 1009.87 1009.75 1009.95 1010.07 1010.27 1010.51 1010.55 1010.63 1010.87 1011.27 1011.39 1011.59 1011.75 1011.99 1012.27 1012.19
1010.91 1010.91 1010.91 1010.83 1010.67 1010.63 1010.59 1010.31 1009.87 1009.47 1009.35 1009.39 1009.43 1009.51 1009.63 1009.71 1009.71 1009.71 1009.71 1009.59 1009.55 1009.67 1009.79 1009.83 1009.91 1009.99 1010.19 1010.23 1010.27 1010.43 1010.47 1010.59 1010.71 1010.87 1010.99 1011.11 1011.15 1011.27 1011.19 1011.07 1010.95 1010.91 1011.03 1011.03 1010.83 1010.63 1010.39 1010.19 1009.75 1009.39 1009.43 1009.67 1009.87 1010.03 1010.11 1010.31 1010.67 1010.83 1010.99 1011.11 1011.39 1011.59 1011.59
1010.31 1010.35 1010.51 1010.51 1010.27 1010.15 1009.91 1009.55 1009.15 1008.91 1008.79 1008.87 1008.91 1008.87 1008.87 1008.99 1009.11 1009.03 1008.99 1009.03 1009.07 1009.03 1009.23 1009.51 1009.75 1009.95 1010.07 1010.23 1010.31 1010.43 1010.59 1010.87 1011.03 1011.07 1011.23 1011.43 1011.39 1011.43 1011.31 1011.19 1011.19 1011.15 1011.15 1010.99 1010.91 1010.75 1010.59 1010.31 1010.11 1009.83 1009.31 1009.11 1009.23 1009.35 1009.51 1009.67 1009.95 1010.15 1010.27 1010.47 1010.71 1010.95 1010.99
1009.15 1009.43 1009.67 1009.91 1009.99 1009.79 1009.47 1009.15 1008.87 1008.67 1008.47 1008.43 1008.43 1008.47 1008.47 1008.43 1008.35 1008.43 1008.51 1008.55 1008.71 1009.07 1009.31 1009.63 1009.75 1010.11 1010.39 1010.47 1010.63 1010.75 1010.99 1011.31 1011.35 1011.47 1011.63 1011.79 1011.83 1011.83 1011.79 1011.71 1011.59 1011.59 1011.43 1011.19 1011.03 1010.87 1010.71 1010.55 1010.39 1010.07 1009.91 1009.51 1008.87 1008.71 1008.87 1009.15 1009.31 1009.47 1009.71 1009.83 1009.83 1010.03 1010.19
1008.51 1008.47 1008.47 1008.67 1008.95 1009.23 1009.27 1008.91 1008.55 1008.31 1008.23 1008.31 1008.27 1008.19 1008.15 1008.23 1008.39 1008.51 1008.55 1008.51 1008.71 1009.31 1009.71 1009.91 1010.11 1010.35 1010.51 1010.71 1010.87 1011.31 1011.55 1011.71 1011.83 1012.07 1012.23 1012.39 1012.27 1012.23 1012.35 1012.27 1012.27 1012.07 1011.95 1011.35 1011.19 1011.07 1010.99 1010.83 1010.63 1010.43 1010.15 1009.83 1009.59 1009.27 1008.95 1008.79 1008.83 1008.99 1009.19 1009.27 1009.35 1009.39 1009.47
1007.87 1007.83 1007.71 1007.55 1007.55 1007.87 1008.19 1008.35 1008.19 1008.11 1008.11 1007.99 1007.99 1008.07 1008.27 1008.47 1008.67 1008.79 1008.83 1008.95 1009.35 1009.59 1009.79 1010.11 1010.23 1010.47 1010.91 1011.03 1011.19 1011.75 1011.91 1012.19 1012.27 1012.47 1012.75 1012.87 1012.87 1012.83 1012.83 1012.79 1012.75 1012.55 1011.95 1011.51 1011.51 1011.47 1011.35 1011.07 1010.91 1010.63 1010.35 1010.19 1009.95 1009.71 1009.47 1009.35 1009.19 1008.99 1008.87 1008.79 1008.91 1009.03 1009.11
1007.23 1007.27 1007.19 1006.95 1006.47 1006.51 1007.27 1007.71 1007.75 1007.87 1007.91 1008.03 1008.07 1008.27 1008.51 1008.71 1008.99 1009.11 1009.27 1009.43 1009.71 1009.83 1009.99 1010.35 1010.43 1010.83 1011.15 1011.43 1011.75 1012.03 1012.19 1012.39 1012.51 1012.67 1012.87 1012.99 1013.07 1013.11 1013.11 1013.11 1012.95 1012.43 1011.75 1011.83 1011.91 1011.87 1011.59 1011.31 1011.11 1010.99 1010.83 1010.47 1010.19 1009.95 1009.75 1009.59 1009.51 1009.43 1009.39 1009.19 1008.95 1008.75 1008.59
1007.99 1007.79 1007.51 1007.59 1007.59 1007.51 1007.63 1007.83 1007.87 1007.95 1007.95 1008.11 1008.39 1008.67 1008.83 1009.23 1009.47 1009.71 1010.27 1010.43 1010.59 1010.55 1010.67 1010.79 1011.03 1011.35 1011.63 1011.79 1011.99 1012.23 1012.35 1012.55 1012.71 1012.79 1012.95 1013.03 1013.11 1013.19 1013.27 1013.15 1012.87 1012.39 1012.31 1012.35 1012.23 1011.99 1011.71 1011.47 1011.39 1011.31 1011.11 1010.91 1010.71 1010.35 1010.07 1009.83 1009.67 1009.59 1009.47 1009.35 1009.15 1008.99 1008.87
1008.43 1008.55 1008.27 1007.83 1007.83 1007.79 1007.83 1007.95 1007.99 1008.03 1008.19 1008.43 1008.67 1009.03 1009.31 1009.67 1010.11 1010.39 1010.75 1010.95 1011.39 1011.39 1011.59 1011.75 1011.79 1011.87 1012.03 1012.15 1012.31 1012.43 1012.55 1012.71 1012.83 1012.99 1013.15 1013.15 1013.23 1013.23 1013.27 1013.15 1012.87 1012.63 1012.67 1012.67 1012.47 1012.23 1012.19 1012.07 1011.91 1011.71 1011.51 1011.19 1010.95 1010.71 1010.39 1010.11 1009.95 1009.83 1009.71 1009.63 1009.51 1009.43 1009.31
Thickness
5224 5221 5218 5214 5211 5209 5206 5203 5199 5196 5194 5191 5190 5188 5186 5185 5184 5183 5184 5183 5183 5183 5182 5181 5178 5176 5174 5172 5170 5169 5168 5167 5166 5167 5168 5169 5171 5175 5181 5185 5190 5199 5207 5212 5218 5225 5231 5236 5244 5255 5265 5272 5279 5289 5296 5303 5311 5320 5327 5333 5341 5348 5353
5221 5217 5213 5209 5207 5204 5201 5199 5196 5193 5190 5187 5186 5184 5183 5182 5181 5181 5180 5180 5180 5180 5179 5179 5177 5175 5173 5171 5168 5166 5165 5165 5164 5164 5164 5164 5165 5167 5171 5176 5181 5188 5195 5202 5208 5214 5221 5225 5230 5240 5251 5257 5265 5274 5282 5290 5299 5307 5315 5321 5329 5337 5343
5217 5213 5209 5206 5203 5200 5197 5195 5192 5189 5186 5183 5182 5181 5180 5179 5178 5178 5177 5177 5178 5177 5177 5177 5175 5174 5171 5169 5167 5165 5163 5163 5162 5162 5161 5161 5162 5163 5166 5168 5172 5178 5184 5192 5198 5203 5211 5216 5219 5228 5236 5242 5252 5261 5268 5277 5287 5294 5302 5309 5317 5325 5332
5213 5209 5205 5202 5199 5196 5194 5191 5188 5185 5182 5179 5178 5176 5176 5175 5174 5174 5174 5174 5174 5174 5174 5174 5173 5172 5170 5168 5166 5163 5162 5162 5160 5160 5159 5159 5159 5160 5162 5163 5165 5169 5174 5181 5189 5194 5200 5206 5211 5219 5225 5230 5239 5248 5254 5264 5273 5281 5290 5298 5305 5312 5321
5209 5206 5202 5199 5196 5192 5190 5187 5184 5182 5178 5176 5174 5173 5172 5171 5170 5171 5170 5170 5170 5170 5171 5171 5170 5170 5168 5166 5165 5163 5162 5160 5159 5158 5157 5157 5157 5157 5158 5158 5160 5162 5165 5171 5177 5184 5190 5196 5202 5210 5216 5220 5227 5235 5243 5252 5260 5268 5277 5286 5293 5301 5310
5205 5202 5198 5195 5192 5189 5186 5183 5180 5178 5175 5172 5170 5168 5168 5168 5167 5168 5168 5167 5167 5167 5168 5168 5168 5168 5166 5165 5164 5162 5161 5159 5157 5156 5156 5156 5156 5155 5155 5154 5155 5156 5159 5163 5168 5173 5179 5185 5190 5198 5206 5211 5216 5222 5230 5240 5248 5257 5264 5273 5281 5291 5299
5200 5197 5194 5191 5188 5185 5182 5179 5176 5174 5171 5168 5166 5165 5164 5164 5164 5164 5165 5164 5164 5163 5164 5166 5166 5165 5165 5164 5163 5162 5160 5158 5156 5155 5155 5154 5154 5153 5153 5152 5151 5152 5153 5156 5160 5165 5170 5175 5180 5186 5194 5201 5205 5210 5219 5228 5237 5246 5255 5262 5269 5278 5286
5196 5193 5189 5186 5184 5181 5178 5175 5172 5170 5167 5164 5162 5161 5160 5160 5161 5161 5162 5161 5160 5160 5161 5162 5163 5163 5163 5163 5162 5161 5160 5158 5156 5154 5154 5154 5153 5152 5151 5150 5149 5149 5149 5150 5153 5158 5163 5167 5172 5177 5184 5190 5194 5201 5209 5216 5223 5234 5244 5251 5258 5266 5275
5191 5187 5185 5181 5179 5176 5173 5171 5168 5166 5163 5160 5158 5158 5157 5157 5157 5157 5158 5157 5157 5156 5157 5158 5160 5161 5161 5161 5161 5161 5160 5158 5157 5155 5154 5154 5153 5151 5150 5149 5148 5147 5147 5147 5149 5152 5157 5161 5166 5170 5175 5181 5186 5193 5200 5204 5210 5221 5231 5239 5248 5260 5268
5185 5182 5179 5176 5173 5171 5169 5166 5164 5162 5160 5159 5157 5155 5154 5153 5153 5153 5153 5153 5153 5153 5153 5155 5157 5158 5158 5159 5159 5160 5160 5159 5159 5157 5156 5155 5154 5152 5150 5149 5148 5147 5147 5146 5146 5148 5152 5155 5160 5164 5169 5174 5180 5185 5191 5195 5201 5210 5218 5225 5236 5251 5261
5179 5176 5173 5170 5168 5166 5164 5161 5160 5158 5157 5157 5157 5155 5152 5151 5150 5149 5149 5149 5149 5149 5150 5152 5154 5155 5155 5156 5157 5159 5160 5160 5160 5160 5159 5158 5156 5155 5153 5150 5148 5147 5147 5145 5145 5147 5149 5151 5156 5161 5165 5169 5174 5178 5183 5188 5194 5201 5207 5213 5223 5239 5249
5173 5170 5168 5165 5163 5161 5159 5157 5155 5154 5155 5155 5155 5155 5153 5151 5149 5148 5147 5147 5146 5146 5147 5149 5152 5153 5154 5155 5157 5158 5159 5160 5161 5161 5161 5161 5159 5158 5157 5155 5152 5151 5149 5147 5146 5146 5148 5151 5154 5159 5162 5166 5170 5174 5178 5183 5188 5194 5200 5206 5216 5227 5232
5167 5165 5162 5160 5158 5156 5154 5153 5151 5151 5152 5153 5153 5153 5153 5151 5150 5148 5147 5146 5146 5145 5146 5148 5150 5151 5153 5155 5156 5158 5159 5159 5160 5161 5161 5161 5161 5161 5160 5159 5157 5155 5153 5151 5148 5148 5150 5153 5155 5158 5163 5167 5169 5172 5175 5179 5184 5189 5195 5201 5209 5216 5219
5162 5159 5157 5155 5154 5152 5150 5148 5147 5147 5149 5150 5151 5151 5151 5151 5150 5148 5148 5147 5146 5146 5146 5147 5148 5149 5153 5155 5156 5158 5159 5159 5160 5160 5160 5161 5161 5161 5161 5160 5160 5158 5157 5156 5153 5152 5155 5157 5157 5159 5164 5167 5168 5170 5173 5176 5181 5186 5190 5196 5202 5207 5212
5157 5154 5152 5151 5149 5148 5147 5144 5143 5145 5147 5147 5148 5148 5148 5149 5149 5147 5147 5146 5145 5146 5146 5146 5147 5148 5151 5154 5156 5158 5160 5160 5160 5160 5160 5160 5160 5160 5160 5160 5160 5160 5160 5159 5158 5157 5159 5160 5159 5161 5164 5165 5166 5169 5172 5175 5179 5183 5186 5191 5196 5201 5207
5151 5148 5147 5146 5145 5144 5143 5142 5141 5143 5145 5145 5146 5146 5146 5146 5146 5146 5146 5146 5145 5145 5145 5144 5144 5146 5149 5152 5156 5159 5160 5161 5161 5160 5159 5159 5159 5159 5159 5160 5161 5161 5161 5161 5161 5161 5162 5162 5162 5163 5164 5165 5166 5168 5170 5172 5175 5179 5183 5187 5191 5195 5202
5146 5144 5143 5141 5141 5141 5140 5139 5139 5140 5142 5144 5144 5144 5144 5144 5145 5145 5145 5145 5144 5144 5143 5143 5144 5145 5148 5151 5155 5158 5160 5161 5161 5159 5158 5158 5157 5157 5157 5158 5160 5161 5162 5164 5164 5164 5165 5165 5165 5165 5166 5167 5167 5168 5169 5169 5171 5174 5177 5182 5185 5190 5195
5140 5139 5138 5137 5137 5137 5137 5136 5136 5137 5140 5141 5142 5142 5142 5142 5142 5143 5144 5144 5144 5143 5142 5143 5144 5144 5146 5149 5152 5155 5157 5158 5159 5158 5156 5156 5156 5155 5156 5158 5159 5159 5160 5163 5164 5165 5167 5167 5167 5168 5168 5169 5169 5169 5168 5168 5169 5172 5174 5178 5182 5184 5187
5134 5133 5133 5134 5134 5134 5134 5133 5133 5135 5137 5138 5139 5141 5140 5141 5141 5142 5143 5143 5143 5143 5142 5142 5142 5143 5144 5146 5147 5150 5152 5154 5156 5157 5156 5156 5155 5155 5156 5159 5159 5158 5160 5160 5161 5163 5166 5166 5167 5168 5168 5169 5169 5169 5169 5169 5169 5170 5172 5175 5178 5179 5180
5128 5127 5127 5129 5130 5131 5130 5130 5130 5132 5133 5135 5137 5138 5139 5140 5141 5142 5142 5141 5142 5142 5141 5140 5140 5139 5141 5142 5143 5145 5146 5148 5151 5154 5155 5155 5155 5155 5157 5160 5159 5158 5159 5160 5160 5161 5162 5163 5164 5165 5165 5166 5167 5167 5168 5169 5169 5168 5170 5172 5175 5176 5177
5122 5122 5123 5124 5126 5127 5127 5127 5127 5128 5130 5132 5135 5136 5138 5139 5140 5141 5140 5140 5140 5140 5138 5137 5137 5135 5136 5137 5139 5140 5141 5143 5146 5149 5152 5154 5156 5156 5158 5159 5159 5158 5159 5159 5158 5158 5159 5158 5159 5160 5160 5161 5162 5163 5164 5166 5168 5168 5168 5170 5172 5174 5175
5117 5117 5118 5119 5121 5123 5124 5124 5125 5126 5127 5130 5132 5135 5137 5138 5139 5140 5139 5138 5138 5137 5135 5134 5133 5132 5132 5133 5135 5136 5137 5139 5142 5145 5149 5152 5155 5156 5157 5157 5158 5158 5158 5157 5157 5157 5156 5155 5155 5155 5155 5156 5157 5158 5160 5162 5165 5167 5168 5170 5171 5173 5174
5112 5113 5114 5115 5117 5119 5120 5122 5122 5124 5126 5128 5131 5134 5136 5137 5139 5139 5138 5136 5135 5134 5133 5132 5131 5129 5129 5130 5132 5134 5134 5136 5138 5142 5145 5149 5151 5154 5154 5153 5154 5156 5156 5157 5157 5155 5154 5153 5152 5151 5151 5151 5152 5154 5156 5158 5161 5164 5166 5168 5170 5171 5173
5107 5108 5109 5111 5114 5116 5119 5120 5121 5123 5125 5127 5130 5133 5135 5137 5138 5138 5137 5135 5133 5132 5130 5129 5127 5126 5126 5127 5129 5131 5132 5134 5136 5138 5142 5144 5147 5148 5148 5149 5149 5151 5153 5154 5154 5154 5153 5152 5151 5150 5149 5149 5149 5149 5151 5154 5157 5160 5162 5165 5167 5168 5170
5104 5105 5106 5109 5112 5115 5118 5120 5121 5123 5124 5126 5129 5131 5134 5135 5135 5135 5134 5132 5131 5129 5127 5126 5125 5124 5124 5126 5128 5129 5130 5132 5133 5135 5138 5140 5141 5141 5142 5144 5144 5145 5148 5151 5152 5153 5153 5151 5151 5150 5148 5147 5146 5145 5146 5149 5151 5154 5157 5159 5162 5164 5166
5102 5103 5104 5106 5110 5113 5116 5118 5119 5121 5122 5124 5126 5128 5131 5131 5131 5130 5130 5129 5128 5126 5125 5123 5123 5122 5122 5124 5125 5126 5128 5129 5129 5131 5133 5134 5135 5136 5138 5138 5138 5140 5143 5146 5149 5150 5151 5151 5150 5149 5147 5144 5143 5142 5143 5145 5148 5150 5153 5154 5157 5159 5162
5100 5101 5103 5105 5108 5111 5113 5115 5117 5118 5120 5121 5123 5124 5125 5126 5125 5126 5125 5124 5123 5122 5120 5120 5119 5118 5118 5120 5121 5123 5124 5124 5125 5126 5128 5129 5130 5132 5133 5134 5134 5135 5138 5142 5145 5147 5148 5148 5148 5146 5144 5143 5141 5142 5143 5144 5146 5148 5150 5152 5154 5156 5159
5099 5100 5102 5104 5106 5108 5110 5112 5115 5118 5119 5120 5120 5120 5121 5120 5121 5121 5121 5120 5120 5118 5117 5117 5116 5115 5115 5115 5117 5118 5118 5119 5120 5121 5122 5124 5125 5125 5127 5128 5130 5132 5133 5136 5138 5140 5142 5144 5145 5145 5144 5143 5142 5143 5144 5145 5145 5147 5149 5151 5152 5153 5156
5098 5099 5100 5102 5104 5105 5107 5110 5115 5118 5119 5119 5118 5118 5118 5117 5118 5118 5119 5118 5118 5117 5116 5115 5113 5112 5111 5110 5111 5113 5114 5114 5115 5115 5117 5118 5119 5119 5121 5123 5126 5128 5129 5130 5133 5135 5136 5139 5141 5144 5145 5144 5144 5144 5145 5146 5146 5147 5149 5150 5151 5152 5154
5097 5098 5098 5099 5101 5103 5106 5110 5114 5116 5117 5117 5117 5118 5117 5117 5118 5119 5118 5119 5118 5117 5115 5113 5110 5108 5107 5107 5107 5108 5108 5108 5109 5109 5111 5111 5112 5114 5116 5118 5120 5121 5123 5126 5129 5130 5132 5134 5136 5140 5143 5145 5146 5145 5146 5147 5147 5147 5149 5150 5151 5152 5153
5099 5099 5099 5099 5100 5102 5105 5108 5112 5114 5115 5116 5116 5116 5117 5117 5117 5117 5117 5117 5116 5114 5111 5109 5106 5104 5102 5101 5102 5101 5101 5101 5102 5103 5103 5104 5105 5107 5108 5110 5113 5114 5117 5121 5123 5126 5128 5129 5131 5134 5137 5140 5143 5146 5146 5147 5147 5147 5148 5149 5151 5153 5153
5100 5101 5102 5103 5102 5102 5103 5106 5109 5112 5112 5113 5114 5114 5114 5114 5114 5113 5113 5113 5112 5109 5105 5103 5102 5099 5097 5096 5095 5094 5093 5094 5095 5095 5095 5095 5097 5099 5101 5102 5105 5106 5110 5115 5118 5120 5122 5124 5126 5129 5131 5134 5138 5140 5143 5145 5145 5147 5147 5148 5150 5152 5152
5100 5102 5104 5107 5109 5108 5105 5105 5107 5109 5110 5111 5111 5111 5110 5109 5107 5107 5107 5107 5106 5103 5101 5099 5097 5094 5092 5090 5089 5087 5086 5087 5087 5088 5088 5088 5090 5092 5094 5095 5097 5100 5105 5109 5111 5114 5116 5119 5121 5124 5126 5129 5132 5134 5137 5139 5140 5142 5144 5146 5148 5150 5151
5099 5100 5103 5106 5109 5109 5106 5104 5105 5106 5107 5107 5107 5106 5105 5103 5101 5101 5101 5100 5098 5097 5095 5094 5092 5089 5086 5084 5083 5082 5081 5082 5081 5082 5082 5083 5084 5086 5087 5089 5092 5096 5100 5103 5104 5107 5110 5113 5115 5118 5120 5123 5127 5129 5131 5133 5135 5136 5139 5140 5144 5146 5148
5092 5094 5096 5099 5101 5102 5101 5101 5101 5102 5102 5102 5102 5100 5099 5096 5095 5093 5091 5090 5089 5089 5088 5086 5085 5083 5081 5079 5078 5077 5076 5077 5077 5077 5078 5079 5080 5081 5082 5084 5088 5091 5094 5095 5097 5101 5105 5107 5109 5112 5114 5117 5119 5123 5126 5129 5130 5132 5134 5135 5138 5141 5143
5084 5085 5089 5092 5093 5095 5096 5096 5097 5098 5098 5097 5096 5094 5092 5090 5088 5086 5084 5083 5081 5080 5080 5078 5077 5077 5075 5074 5073 5072 5072 5071 5072 5072 5073 5074 5075 5077 5078 5080 5083 5085 5087 5089 5091 5094 5097 5099 5102 5105 5108 5111 5114 5118 5120 5123 5125 5127 5129 5131 5133 5135 5137